This is the latest recevied weather packets stored in our database for station/object W6MAF. If no packets are shown the sender has not sent any weather packets the latest 10 day(s).
| Time | Temp. | Humidity | Pressure | Rain* | Wind** | Luminosity | Snow |
|---|---|---|---|---|---|---|---|
| 1777914228 | 10° C | 53% | - | 0 mm | 2.24 m/s, 172° | - | - |
| 1777914170 | 10° C | 53% | - | 0 mm | 2.24 m/s, 172° | - | - |
| 1777913871 | 10° C | 53% | - | 0 mm | 2.68 m/s, 105° | - | - |
| 1777913673 | 10° C | 53% | - | 0 mm | 0 m/s | - | - |
| 1777913574 | 10° C | 53% | - | 0 mm | 0 m/s | - | - |
| 1777913276 | 10° C | 54% | - | 0 mm | 1.34 m/s, 217° | - | - |
| 1777912978 | 9.44° C | 54% | - | 0 mm | 1.34 m/s, 132° | - | - |
| 1777912380 | 9.44° C | 54% | - | 0 mm | 1.34 m/s, 177° | - | - |
| 1777911487 | 8.89° C | 59% | - | 0 mm | 0.89 m/s, 122° | - | - |
| 1777911189 | 8.89° C | 61% | - | 0 mm | 0.45 m/s, 205° | - | - |
| 1777910888 | 8.89° C | 63% | - | 0 mm | 0.45 m/s, 197° | - | - |
| 1777910591 | 8.33° C | 65% | - | 0 mm | 0.89 m/s, 111° | - | - |
| 1777910293 | 8.33° C | 66% | - | 0 mm | 0.89 m/s, 177° | - | - |
| 1777909995 | 8.33° C | 69% | - | 0 mm | 0.89 m/s, 125° | - | - |
| 1777909698 | 7.78° C | 70% | - | 0 mm | 2.24 m/s, 191° | - | - |
| 1777909400 | 7.78° C | 71% | - | 0 mm | 1.79 m/s, 177° | - | - |
| 1777909099 | 7.78° C | 72% | - | 0 mm | 1.79 m/s, 179° | - | - |
| 1777908801 | 7.78° C | 73% | - | 0 mm | 1.34 m/s, 214° | - | - |
| 1777908206 | 7.22° C | 74% | - | 0 mm | 2.68 m/s, 179° | - | - |
| 1777907908 | 7.22° C | 75% | - | 0 mm | 3.58 m/s, 226° | - | - |
| 1777907611 | 7.22° C | 77% | - | 0 mm | 7.15 m/s, 203° | - | - |
| 1777907310 | 7.22° C | 79% | - | 0 mm | 6.26 m/s, 184° | - | - |
| 1777907012 | 6.67° C | 81% | - | 0 mm | 7.6 m/s, 190° | - | - |
| 1777906714 | 6.67° C | 83% | - | 0 mm | 6.71 m/s, 205° | - | - |
| 1777906417 | 6.67° C | 84% | - | 0 mm | 6.26 m/s, 201° | - | - |
* Rain latest hour (hover to see other rain measurements)
** Current wind speed in m/s (hover to see current wind gust speed)